PSBHZ MROC-MSLP

Flight info

Callsign PSBHZ
Flight time N/A
Altitude 10000
Route NANJO3U ULAPO DCT ALTEG UG436 AMUVO AMUVO2M
Aircraft C208/L-SDFGR/C

Departure

Time 2026-05-04 22:41
Airport Juan Santamaría International Airport (MROC)

Arrival

Time N/A
Airport El Salvador International Airport Saint Óscar Arnulfo Romero y Galdámez (MSLP)
Time Latitude Longitude Altitude Speed Heading
2026-05-04 22:14 9.99497 -84.21036 3017 ft 0 kts 162°
2026-05-04 22:32 9.99507 -84.21040 3017 ft 2 kts 162°
2026-05-04 22:32 9.99520 -84.21044 3017 ft 2 kts 162°
2026-05-04 22:32 9.99533 -84.21048 3017 ft 2 kts 166°
2026-05-04 22:32 9.99541 -84.21049 3017 ft 1 kts 185°
2026-05-04 22:33 9.99546 -84.21047 3017 ft 1 kts 235°
2026-05-04 22:33 9.99547 -84.21045 3018 ft 2 kts 249°
2026-05-04 22:33 9.99535 -84.21076 3015 ft 0 kts 249°
2026-05-04 22:34 9.99527 -84.21100 3013 ft 10 kts 252°
2026-05-04 22:34 9.99508 -84.21193 3005 ft 13 kts 249°
2026-05-04 22:35 9.99435 -84.21197 3003 ft 14 kts 158°
2026-05-04 22:35 9.99354 -84.21238 3001 ft 19 kts 249°
2026-05-04 22:35 9.99297 -84.21392 2990 ft 28 kts 249°
2026-05-04 22:35 9.99205 -84.21605 2973 ft 37 kts 252°
2026-05-04 22:36 9.99126 -84.21858 2961 ft 40 kts 249°
2026-05-04 22:36 9.99105 -84.22037 2954 ft 19 kts 285°
2026-05-04 22:36 9.99074 -84.22143 2950 ft 20 kts 247°
2026-05-04 22:36 9.99010 -84.22204 2947 ft 0 kts 192°
2026-05-04 22:38 9.99001 -84.22203 2947 ft 3 kts 157°
2026-05-04 22:38 9.98966 -84.22189 2947 ft 9 kts 159°
2026-05-04 22:39 9.98913 -84.22157 2947 ft 7 kts 81°
2026-05-04 22:39 9.98920 -84.22140 2948 ft 0 kts 66°
2026-05-04 22:39 9.98950 -84.22059 2952 ft 31 kts 69°
2026-05-04 22:39 9.99069 -84.21742 2971 ft 66 kts 69°
2026-05-04 22:40 9.99272 -84.21233 3040 ft 84 kts 62°
2026-05-04 22:40 9.99556 -84.20706 3206 ft 86 kts 54°
2026-05-04 22:40 9.99985 -84.20308 3423 ft 81 kts 38°
2026-05-04 22:40 10.00078 -84.19778 3555 ft 84 kts 108°
2026-05-04 22:41 10.00256 -84.19261 3693 ft 89 kts 22°
2026-05-04 22:41 10.00819 -84.19481 3831 ft 97 kts 312°
2026-05-04 22:41 10.01431 -84.19798 3969 ft 104 kts 342°
2026-05-04 22:41 10.02130 -84.20094 4132 ft 114 kts 339°
2026-05-04 22:42 10.02883 -84.20390 4388 ft 114 kts 340°
2026-05-04 22:42 10.03602 -84.20665 4688 ft 107 kts 340°
2026-05-04 22:42 10.04287 -84.20923 4982 ft 102 kts 340°
2026-05-04 22:42 10.04940 -84.21173 5214 ft 101 kts 340°
2026-05-04 22:43 10.05474 -84.21604 5411 ft 104 kts 293°
2026-05-04 22:43 10.05709 -84.22293 5617 ft 104 kts 292°
2026-05-04 22:43 10.05977 -84.22981 5822 ft 105 kts 290°
2026-05-04 22:43 10.06237 -84.23681 6028 ft 107 kts 290°
2026-05-04 22:44 10.06502 -84.24394 6235 ft 108 kts 290°
2026-05-04 22:44 10.06767 -84.25114 6440 ft 109 kts 290°
2026-05-04 22:44 10.07038 -84.25846 6643 ft 111 kts 290°
2026-05-04 22:44 10.07311 -84.26582 6863 ft 110 kts 290°
2026-05-04 22:45 10.07572 -84.27292 7126 ft 104 kts 290°
2026-05-04 22:45 10.07886 -84.28557 7542 ft 86 kts 256°
2026-05-04 22:45 10.07803 -84.29130 7272 ft 56 kts 202°
2026-05-04 22:46 10.07781 -84.29349 3807 ft 21 kts 112°
2026-05-04 22:46 10.07794 -84.29339 3320 ft 0 kts 221°
2026-05-04 22:47 10.07730 -84.29456 3402 ft 0 kts 224°
2026-05-04 22:47 10.07702 -84.29509 3412 ft 22 kts 240°
2026-05-04 22:47 10.07463 -84.29623 3402 ft 60 kts 206°
2026-05-04 22:47 10.06991 -84.29743 3180 ft 2 kts 136°
2026-05-04 22:48 10.06992 -84.29743 3179 ft 0 kts 137°